Greenville, TX

2:01 PM CDT on March 29, 2017 (GMT -0500)
Majors

Weather History for KGVT - November, 2011

Change the Weather History Date:

Sunday, November 13, 2011

  Actual Average Record
Temperature  
Mean Temperature 73 °F -  
Max Temperature 82 °F 63 °F 82 °F (2011)
Min Temperature 64 °F 50 °F 26 °F (2014)
Cooling Degree Days 8    
Growing Degree Days 23 (Base 50)    
Moisture  
Dew Point 56 °F    
Average Humidity 61    
Maximum Humidity 88    
Minimum Humidity 32    
Precipitation  
Precipitation 0.00 in - - ()
Sea Level Pressure  
Sea Level Pressure 29.82 in    
Wind  
Wind Speed 16 mph (SSW)    
Max Wind Speed 25 mph    
Max Gust Speed 33 mph    
Visibility 10 miles    
Events      
Averages and records for this station are not official NWS values.
T = Trace of Precipitation, MM = Missing Value Source: NWS Daily Summary

Daily Weather History Graph

Daily Weather History Graph

Search for Another Location

Airport or City:

Trip Planner

Search our weather history database for the weather conditions in past years. The results will help you decide how hot, cold, wet, or windy it might be!

Date:

Astronomy

Nov. 13, 2011 Rise Set
Actual Time 6:52 AM CST 5:23 PM CST
Civil Twilight 6:26 AM CST 5:49 PM CST
Nautical Twilight 5:57 AM CST 6:19 PM CST
Astronomical Twilight 5:27 AM CST 6:48 PM CST
Moon 7:38 PM CST (11/13) 9:20 AM CST (11/13)
Length of Visible Light 11h 23m
Length of Day
10h 30m
Waning Gibbous, 92% of the Moon is Illuminated
Nov 13
Waning Gibbous
Nov 18
Last Quarter
Nov 25
New
Dec 2
First Quarter
Dec 10
Full

Hourly Weather History & Observations

Time (CST) Temp. Heat Index Dew Point Humidity Pressure Visibility Wind Dir Wind Speed Gust Speed Precip Events Conditions
12:15 AM 66.2 °F - 55.4 °F 68% 29.84 in 10.0 mi South 19.6 mph 23.0 mph N/A   Clear
12:35 AM 66.2 °F - 55.4 °F 68% 29.84 in 10.0 mi South 17.3 mph - N/A   Clear
12:55 AM 66.2 °F - 55.4 °F 68% 29.84 in 10.0 mi South 18.4 mph 25.3 mph N/A   Clear
1:15 AM 66.2 °F - 55.4 °F 68% 29.84 in 10.0 mi SSW 18.4 mph 27.6 mph N/A   Clear
1:35 AM 66.2 °F - 57.2 °F 73% 29.84 in 10.0 mi SSW 17.3 mph 25.3 mph N/A   Clear
1:55 AM 66.2 °F - 57.2 °F 73% 29.84 in 10.0 mi SSW 17.3 mph 21.9 mph N/A   Clear
2:15 AM 66.2 °F - 57.2 °F 73% 29.84 in 10.0 mi South 16.1 mph 21.9 mph N/A   Clear
2:35 AM 64.4 °F - 59.0 °F 83% 29.84 in 10.0 mi South 13.8 mph 21.9 mph N/A   Clear
2:55 AM 64.4 °F - 59.0 °F 83% 29.84 in 10.0 mi South 13.8 mph - N/A   Scattered Clouds
3:15 AM 64.4 °F - 59.0 °F 83% 29.84 in 10.0 mi South 12.7 mph - N/A   Scattered Clouds
3:35 AM 64.4 °F - 59.0 °F 83% 29.84 in 10.0 mi South 15.0 mph 18.4 mph N/A   Scattered Clouds
3:55 AM 64.4 °F - 59.0 °F 83% 29.83 in 10.0 mi South 17.3 mph 23.0 mph N/A   Scattered Clouds
4:15 AM 64.4 °F - 59.0 °F 83% 29.84 in 10.0 mi South 17.3 mph - N/A   Scattered Clouds
4:35 AM 64.4 °F - 59.0 °F 83% 29.84 in 10.0 mi SSW 13.8 mph 19.6 mph N/A   Scattered Clouds
4:55 AM 64.4 °F - 59.0 °F 83% 29.84 in 10.0 mi South 15.0 mph 19.6 mph N/A   Scattered Clouds
5:15 AM 64.4 °F - 59.0 °F 83% 29.84 in 10.0 mi SSW 15.0 mph - N/A   Scattered Clouds
5:35 AM 64.4 °F - 59.0 °F 83% 29.84 in 10.0 mi South 15.0 mph - N/A   Scattered Clouds
5:55 AM 64.4 °F - 59.0 °F 83% 29.84 in 10.0 mi South 16.1 mph 20.7 mph N/A   Scattered Clouds
6:15 AM 64.4 °F - 59.0 °F 83% 29.84 in 10.0 mi SSW 16.1 mph 23.0 mph N/A   Scattered Clouds
6:35 AM 64.4 °F - 59.0 °F 83% 29.84 in 10.0 mi SSW 16.1 mph 21.9 mph N/A   Scattered Clouds
7:15 AM 64.4 °F - 60.8 °F 88% 29.85 in 10.0 mi South 15.0 mph 23.0 mph N/A   Scattered Clouds
7:55 AM 66.2 °F - 60.8 °F 83% 29.86 in 10.0 mi SSW 16.1 mph - N/A   Scattered Clouds
8:15 AM 68.0 °F - 60.8 °F 78% 29.87 in 10.0 mi SSW 18.4 mph 23.0 mph N/A   Mostly Cloudy
8:55 AM 69.8 °F - 60.8 °F 73% 29.86 in 10.0 mi SSW 18.4 mph 21.9 mph N/A   Scattered Clouds
9:15 AM 71.6 °F - 60.8 °F 69% 29.86 in 10.0 mi SSW 19.6 mph 27.6 mph N/A   Scattered Clouds
9:35 AM 71.6 °F - 60.8 °F 69% 29.86 in 10.0 mi SSW 25.3 mph 29.9 mph N/A   Clear
9:55 AM 73.4 °F - 59.0 °F 61% 29.86 in 10.0 mi SSW 21.9 mph 33.4 mph N/A   Clear
10:15 AM 75.2 °F - 59.0 °F 57% 29.86 in 10.0 mi SSW 20.7 mph 28.8 mph N/A   Clear
10:35 AM 75.2 °F - 59.0 °F 57% 29.85 in 10.0 mi SSW 17.3 mph 33.4 mph N/A   Clear
10:55 AM 77.0 °F - 59.0 °F 54% 29.84 in 10.0 mi SSW 20.7 mph 27.6 mph N/A   Clear
11:15 AM 78.8 °F - 59.0 °F 51% 29.84 in 10.0 mi SSW 23.0 mph 29.9 mph N/A   Clear
11:55 AM 78.8 °F - 55.4 °F 44% 29.82 in 10.0 mi SSW 23.0 mph 29.9 mph N/A   Clear
12:15 PM 80.6 °F 80.5 °F 55.4 °F 42% 29.80 in 10.0 mi SSW 19.6 mph 25.3 mph N/A   Clear
12:35 PM 80.6 °F 80.3 °F 53.6 °F 39% 29.80 in 10.0 mi SW 20.7 mph 28.8 mph N/A   Clear
12:55 PM 80.6 °F 80.5 °F 55.4 °F 42% 29.79 in 10.0 mi SW 17.3 mph 29.9 mph N/A   Clear
1:15 PM 82.4 °F 81.4 °F 53.6 °F 37% 29.78 in 10.0 mi SW 18.4 mph 31.1 mph N/A   Clear
1:35 PM 82.4 °F 81.4 °F 53.6 °F 37% 29.77 in 10.0 mi SSW 18.4 mph 26.5 mph N/A   Clear
2:15 PM 82.4 °F 81.4 °F 53.6 °F 37% 29.77 in 10.0 mi SSW 18.4 mph 25.3 mph N/A   Clear
2:35 PM 82.4 °F 81.4 °F 53.6 °F 37% 29.77 in 10.0 mi SSW 15.0 mph 23.0 mph N/A   Clear
2:55 PM 82.4 °F - 51.8 °F 35% 29.77 in 10.0 mi SW 20.7 mph 25.3 mph N/A   Clear
3:15 PM 82.4 °F - 51.8 °F 35% 29.77 in 10.0 mi SSW 20.7 mph 26.5 mph N/A   Clear
3:35 PM 82.4 °F - 51.8 °F 35% 29.77 in 10.0 mi SSW 15.0 mph 23.0 mph N/A   Clear
3:55 PM 82.4 °F - 50.0 °F 32% 29.76 in 10.0 mi SW 12.7 mph 19.6 mph N/A   Clear
4:15 PM 80.6 °F - 51.8 °F 37% 29.76 in 10.0 mi SSW 11.5 mph - N/A   Clear
4:35 PM 80.6 °F 80.3 °F 53.6 °F 39% 29.76 in 10.0 mi South 12.7 mph 21.9 mph N/A   Clear
4:55 PM 80.6 °F 80.3 °F 53.6 °F 39% 29.76 in 10.0 mi South 12.7 mph - N/A   Clear
5:15 PM 78.8 °F - 53.6 °F 42% 29.76 in 10.0 mi South 10.4 mph - N/A   Clear
5:35 PM 78.8 °F - 53.6 °F 42% 29.77 in 10.0 mi South 11.5 mph - N/A   Clear
5:55 PM 77.0 °F - 53.6 °F 44% 29.77 in 10.0 mi South 10.4 mph - N/A   Clear
6:15 PM 77.0 °F - 53.6 °F 44% 29.78 in 10.0 mi SSW 9.2 mph - N/A   Clear
6:35 PM 77.0 °F - 53.6 °F 44% 29.79 in 10.0 mi South 6.9 mph - N/A   Clear
6:55 PM 73.4 °F - 55.4 °F 53% 29.79 in 10.0 mi South 6.9 mph - N/A   Clear
7:15 PM 71.6 °F - 55.4 °F 57% 29.79 in 10.0 mi South 6.9 mph - N/A   Clear
7:35 PM 69.8 °F - 55.4 °F 60% 29.79 in 10.0 mi South 6.9 mph - N/A   Clear
7:55 PM 69.8 °F - 55.4 °F 60% 29.80 in 10.0 mi South 5.8 mph - N/A   Clear
8:15 PM 68.0 °F - 55.4 °F 64% 29.80 in 10.0 mi SSE 5.8 mph - N/A   Clear
8:35 PM 68.0 °F - 55.4 °F 64% 29.80 in 10.0 mi SSE 8.1 mph - N/A   Clear
8:55 PM 69.8 °F - 55.4 °F 60% 29.80 in 10.0 mi SSE 9.2 mph - N/A   Clear
9:15 PM 71.6 °F - 57.2 °F 60% 29.80 in 10.0 mi South 10.4 mph - N/A   Clear
9:35 PM 71.6 °F - 57.2 °F 60% 29.80 in 10.0 mi South 10.4 mph - N/A   Clear
9:55 PM 69.8 °F - 59.0 °F 68% 29.80 in 10.0 mi South 9.2 mph - N/A   Clear
10:15 PM 71.6 °F - 59.0 °F 64% 29.81 in 10.0 mi South 11.5 mph - N/A   Clear
10:35 PM 71.6 °F - 59.0 °F 64% 29.81 in 10.0 mi South 11.5 mph - N/A   Clear
10:55 PM 71.6 °F - 59.0 °F 64% 29.81 in 10.0 mi South 13.8 mph - N/A   Clear
11:15 PM 71.6 °F - 60.8 °F 69% 29.81 in 10.0 mi South 13.8 mph 19.6 mph N/A   Clear
11:35 PM 71.6 °F - 60.8 °F 69% 29.81 in 10.0 mi South 17.3 mph 21.9 mph N/A   Clear
11:55 PM 71.6 °F - 60.8 °F 69% 29.81 in 10.0 mi South 16.1 mph 24.2 mph N/A   Clear